Regional Weather Roundup
Issued by NWS

Home | Current Version | Previous Version | Text Only | Print | Product List | Glossary On
Versions: 1 2 3 4 5 6 7 8 9 10 11 12 13 14 15 16 17 18 19 20 21 22 23 24 25 26 27 28 29 30
000
ASUS44 KLIX 010611
RWRLA
LOUISIANA WEATHER ROUNDUP
NATIONAL WEATHER SERVICE NEW ORLEANS LA
100 AM CDT THU SEP 01 2016

NOTE: "FAIR" INDICATES FEW OR NO CLOUDS BELOW 12,000 FEET WITH NO
      SIGNIFICANT WEATHER AND/OR OBSTRUCTIONS TO VISIBILITY.
      SKY/WX - SKY CONDITION AND SIGNIFICANT WEATHER.
      TMP - AIR TEMPERATURE.    DP   - DEWPOINT TEMPERATURE.
      RH  - RELATIVE HUMIDITY.  PRES - PRESSURE.
      HX  - HEAT INDEX.         WCI  - WIND CHILL INDEX.

*  THESE STATIONS ARE NOT NWS OR FAA STATIONS AND ARE NOT UNDER
   NWS QUALITY CONTROL.

LAZ040-048-061>063-065-066-069-010700-
SOUTHEAST LOUISIANA

CITY           SKY/WX    TMP DP  RH WIND       PRES   REMARKS
N.O. AUDUBON   NOT AVBL
N.O. INTL ARPT FAIR      86  77  74 N7        29.83F HX  97
6HR MIN TEMP:  85; 6HR MAX TEMP:  92;

N.O. LAKEFRONT FAIR      86  76  71 N10       29.83F HX  96
6HR MIN TEMP:  85; 6HR MAX TEMP:  88;

N.O. DOWNTOWN* FAIR      85  76  74 N3        29.84F
6HR MIN TEMP:  85; 6HR MAX TEMP:  89;

RESERVE*       FAIR      81  78  91 N3        29.85S
6HR MIN TEMP:  81; 6HR MAX TEMP:  91;

SLIDELL        FAIR      77  75  93 N3        29.83F
6HR MIN TEMP:  77; 6HR MAX TEMP:  89;

BATON ROUGE    FAIR      80  75  84 N7        29.86F
6HR MIN TEMP:  80; 6HR MAX TEMP:  90;

BOOTHVILLE     NOT AVBL
BELLE CHASSE   NOT AVBL
BOGALUSA*      FAIR      76  72  85 N3        29.87F
6HR MIN TEMP:  76; 6HR MAX TEMP:  89;

GALLIANO*      FAIR     N/A N/A N/A N5        29.82F
NEW ROADS*     FAIR      77  75  92 MISG      29.87S
6HR MIN TEMP:  77; 6HR MAX TEMP:  87;

GONZALES*      FAIR      79  75  89 N3        29.84S
6HR MIN TEMP:  78; 6HR MAX TEMP:  89;

HAMMOND*       FAIR      79  70  73 N6        29.85F
HOUMA*         FAIR      78  77  96 CALM      29.84S
6HR MIN TEMP:  77; 6HR MAX TEMP:  87;

PORT FOURCHON* CLEAR     84  77  79 N8        29.82S

$$

LAZ041-044-053-054-010700-
SOUTHWEST LOUISIANA

CITY           SKY/WX    TMP DP  RH WIND       PRES   REMARKS
LAKE CHARLES   FAIR      81  73  76 N7        29.87F
6HR MIN TEMP:  79; 6HR MAX TEMP:  90;

LAFAYETTE      FAIR      80  74  81 N6        29.86F
6HR MIN TEMP:  80; 6HR MAX TEMP:  89;

PATTERSON      FAIR      80  77  90 N3        29.85F
6HR MIN TEMP:  78; 6HR MAX TEMP:  88;

SALT POINT       N/A     80  76  87 CALM      29.83F
6HR MIN TEMP:  80; 6HR MAX TEMP:  88;

NEW IBERIA     FAIR      80  74  81 N5        29.86F
6HR MIN TEMP:  80; 6HR MAX TEMP:  89;

CHENAULT AIRPK FAIR      79  73  83 N5        29.88F
6HR MIN TEMP:  79; 6HR MAX TEMP:  89;


$$

LAZ027-028-010700-
CENTRAL LOUISIANA

CITY           SKY/WX    TMP DP  RH WIND       PRES   REMARKS
FORT POLK      FAIR      80  72  77 N7        29.90F
6HR MIN TEMP:  80; 6HR MAX TEMP:  88;

ALEXANDRIA INT FAIR      78  74  87 N3        29.88F
6HR MIN TEMP:  77; 6HR MAX TEMP:  89;

ALEXANDRIA     FAIR      79  75  87 CALM      29.89F
6HR MIN TEMP:  78; 6HR MAX TEMP:  86;


$$

LAZ001-002-010700-
NORTHWEST LOUISIANA

CITY           SKY/WX    TMP DP  RH WIND       PRES   REMARKS
SHREVEPORT     FAIR      80  76  87 CALM      29.93F
6HR MIN TEMP:  80; 6HR MAX TEMP:  91;

BARKSDALE AFB  FAIR      78  76  94 CALM      29.93F
6HR MIN TEMP:  78; 6HR MAX TEMP:  89;

DTN SHREVEPORT FAIR      79  75  87 CALM      29.94S
6HR MIN TEMP:  79; 6HR MAX TEMP:  91;


$$

LAZ014-016-010700-
NORTHEAST LOUISIANA

CITY           SKY/WX    TMP DP  RH WIND       PRES   REMARKS
MONROE         FAIR      79  75  87 N3        29.92F
6HR MIN TEMP:  78; 6HR MAX TEMP:  89;

TALLULAH       FAIR      77  73  87 N3        29.89F
6HR MIN TEMP:  77; 6HR MAX TEMP:  87;


$$





USA.gov is the U.S. government's official web portal to all federal, state and local government web resources and services.